Mansfield Center, CT

4:19 AM EST on February 21, 2017 (GMT -0500)
Windham

Weather History for KIJD - August, 2013

Change the Weather History Date:

Monday, August 5, 2013

  Actual Average Record
Temperature  
Mean Temperature 63 °F -  
Max Temperature 75 °F 83 °F 97 °F (1955)
Min Temperature 51 °F 60 °F 42 °F (1972)
Degree Days  
Heating Degree Days 2    
Growing Degree Days 13 (Base 50)    
Moisture  
Dew Point 49 °F    
Average Humidity 66    
Maximum Humidity 94    
Minimum Humidity 32    
Precipitation  
Precipitation 0.01 in - - ()
Sea Level Pressure  
Sea Level Pressure 30.00 in    
Wind  
Wind Speed 4 mph (NNW)    
Max Wind Speed 16 mph    
Max Gust Speed 23 mph    
Visibility 10 miles    
Events      
Averages and records for this station are not official NWS values.
T = Trace of Precipitation, MM = Missing Value Source: NWS Daily Summary

Daily Weather History Graph

Daily Weather History Graph

Search for Another Location

Airport or City:

Trip Planner

Search our weather history database for the weather conditions in past years. The results will help you decide how hot, cold, wet, or windy it might be!

Date:

Astronomy

Aug. 05, 2013 Rise Set
Actual Time 5:47 AM EDT 8:01 PM EDT
Civil Twilight 5:16 AM EDT 8:32 PM EDT
Nautical Twilight 4:37 AM EDT 9:10 PM EDT
Astronomical Twilight 3:55 AM EDT 9:52 PM EDT
Moon 4:39 AM EDT (8/5) 6:59 PM EDT (8/5)
Length of Visible Light 15h 16m
Length of Day
14h 14m
Waning Crescent, 1% of the Moon is Illuminated
Aug 5
Waning Crescent
Aug 6
New
Aug 14
First Quarter
Aug 20
Full
Aug 28
Last Quarter

Hourly Weather History & Observations

Time (EDT) Temp. Dew Point Humidity Pressure Visibility Wind Dir Wind Speed Gust Speed Precip Events Conditions
12:52 AM 59.0 °F 53.1 °F 81% 29.94 in 10.0 mi Calm Calm - N/A   Clear
1:52 AM 57.0 °F 53.1 °F 87% 29.94 in 10.0 mi North 4.6 mph - N/A   Clear
2:52 AM 55.0 °F 53.1 °F 93% 29.94 in 10.0 mi SSW 3.5 mph - N/A   Clear
3:52 AM 55.0 °F 52.0 °F 89% 29.96 in 10.0 mi Calm Calm - 0.01 in   Clear
4:52 AM 53.1 °F 50.0 °F 89% 29.96 in 10.0 mi Calm Calm - N/A   Clear
5:52 AM 52.0 °F 50.0 °F 93% 29.98 in 10.0 mi Calm Calm - N/A   Clear
6:15 AM 51.8 °F 50.0 °F 94% 29.99 in 10.0 mi Calm Calm - N/A   Partly Cloudy
6:52 AM 54.0 °F 52.0 °F 93% 30.00 in 10.0 mi Calm Calm - N/A   Clear
7:52 AM 61.0 °F 53.1 °F 75% 30.01 in 10.0 mi NW 5.8 mph - N/A   Clear
8:52 AM 64.0 °F 52.0 °F 65% 30.01 in 10.0 mi NW 9.2 mph 16.1 mph N/A   Clear
9:52 AM 66.0 °F 46.9 °F 50% 30.01 in 10.0 mi NNW 13.8 mph 23.0 mph N/A   Clear
10:52 AM 66.9 °F 44.1 °F 44% 30.01 in 10.0 mi NW 16.1 mph 23.0 mph N/A   Clear
11:52 AM 69.1 °F 43.0 °F 39% 30.01 in 10.0 mi NW 13.8 mph 19.6 mph N/A   Clear
12:52 PM 71.1 °F 44.1 °F 38% 30.00 in 10.0 mi West 10.4 mph 17.3 mph N/A   Clear
1:52 PM 72.0 °F 42.1 °F 34% 29.99 in 10.0 mi Variable 6.9 mph - N/A   Clear
2:52 PM 75.0 °F 44.1 °F 33% 29.97 in 10.0 mi North 13.8 mph 18.4 mph N/A   Clear
3:52 PM 75.0 °F 43.0 °F 32% 29.98 in 10.0 mi North 8.1 mph - N/A   Clear
4:52 PM 75.9 °F 44.1 °F 32% 29.98 in 10.0 mi NNW 9.2 mph - N/A   Clear
5:52 PM 75.0 °F 45.0 °F 34% 29.99 in 10.0 mi North 8.1 mph - N/A   Clear
6:52 PM 73.9 °F 46.9 °F 38% 30.00 in 10.0 mi North 4.6 mph - N/A   Clear
7:52 PM 66.9 °F 54.0 °F 63% 30.02 in 10.0 mi Calm Calm - N/A   Clear
8:52 PM 61.0 °F 55.0 °F 81% 30.04 in 10.0 mi Calm Calm - N/A   Clear
9:52 PM 59.0 °F 55.0 °F 87% 30.06 in 10.0 mi Calm Calm - N/A   Clear
10:52 PM 57.0 °F 54.0 °F 89% 30.06 in 10.0 mi Calm Calm - N/A   Clear
11:52 PM 55.9 °F 53.1 °F 90% 30.06 in 10.0 mi Calm Calm - N/A   Clear